NOAA 16 DEB, 42425

Orbit data source: Space-Track

NOAA 16 DEB, 42425 is space debris in SSO originally from a launch on Thu, 21 Sep 2000 UTC launched from the Air Force Western Test Range (AFWTR). Debris objects in space refer to the collection of defunct objects orbiting the Earth. Examples of debris include non-operational satellites, rocket bodies, and fragments generated from explosions, collisions, or faulty payload assembly.

Loading next visibility...
Identifier
42425, 2000-055TV
Orbit
SSO
Country
Flag of USUS
Related business
Manufacturer
Unknown
Mission
Spacecraft
Bus & Motor
Unknown
Mass
Unknown
Launch date (UTC)
2000-09-21 (26 years ago)
Launch vehicle
Unknown
Launch site
Air Force Western Test Range (AFWTR)
Object type
Payload
Rocket body
Debris
Shape & HBR
Unknown shape, 0.1 m
Radar Cross Section
Medium (>0.1 m² and <1 m²)

Expand to show TLE details & history
Last TLE update: 2 days ago

TLE from 2 days ago
0 NOAA 16 DEB
1 42425U 00055TV  26234.32620421  .00001825  00000-0  88381-3 0  9991
2 42425  98.6970 270.3842 0024242  24.2112 336.0198 14.19523574516126
Epoch: 2026-08-22T07:49Z
TLE epoch observation values (Epoch: 2026-08-22T07:49:44.043Z)
Latitude
-0.00003°
Longitude
-177.68753°
Altitude
813.924 km
Speed
7.455 km/s
True Right ascension
18h 01m 32s
True Declination
0° 00' 00"
Sunlit
Object was in full shadow at epoch
Visualization orbit readout
Latitude
Unknown
Longitude
Unknown
Altitude
Unknown
Speed
Unknown
Apparent Right ascension
Unknown
Apparent Declination
Unknown
Sunlit
N/A
Visualization observer readout
Local Sidereal Time
10:21:17
Azimuth
Unknown
Elevation
Unknown
Doppler factor
Unknown
Orbital elements
Apogee altitude
841.583 km
Perigee altitude
806.663 km
Semi-major axis
7,202.26 km
Eccentricity
0.00242
Inclination
98.697°
RAAN
270.3842°
Arg. of periapsis
24.2112°
True anomaly
335.90659°
Mean anomaly
336.0198°
Eccentric anomaly
335.96322°
Mean motion
3.55091 °/min
Orbital period
101.38 mins
BSTAR
0.00088381
Loading maneuver chart data...
Computing Atmospheric mass density...
Loading historical data...
Loading historical data...
Loading historical data...
Loading historical data...
Loading historical data...
Loading historical data...
Loading historical data...

Documentation

Showing up to 5 results
|